Newport, RI

7:57 PM EDT on April 25, 2017 (GMT -0400)
Newport State

Weather History for KUUU - November, 2011

Change the Weather History Date:

Monday, November 21, 2011

  Actual Average Record
Temperature  
Mean Temperature 46 °F -  
Max Temperature 55 °F 51 °F 63 °F (1975)
Min Temperature 34 °F 35 °F 11 °F (1987)
Degree Days  
Heating Degree Days 20    
Moisture  
Dew Point 39 °F    
Average Humidity 76    
Maximum Humidity 96    
Minimum Humidity 59    
Precipitation  
Precipitation 0.00 in - - ()
Sea Level Pressure  
Sea Level Pressure 30.26 in    
Wind  
Wind Speed 6 mph (NNE)    
Max Wind Speed 15 mph    
Max Gust Speed -    
Visibility 10 miles    
Events Rain    
Averages and records for this station are not official NWS values.
T = Trace of Precipitation, MM = Missing Value Source: NWS Daily Summary

Daily Weather History Graph

Daily Weather History Graph

Search for Another Location

Airport or City:

Trip Planner

Search our weather history database for the weather conditions in past years. The results will help you decide how hot, cold, wet, or windy it might be!

Date:

Astronomy

Nov. 21, 2011 Rise Set
Actual Time 6:40 AM EST 4:20 PM EST
Civil Twilight 6:10 AM EST 4:51 PM EST
Nautical Twilight 5:36 AM EST 5:24 PM EST
Astronomical Twilight 5:03 AM EST 5:57 PM EST
Moon 2:12 AM EST (11/21) 1:43 PM EST (11/21)
Length of Visible Light 10h 40m
Length of Day
9h 40m
Waning Crescent, 18% of the Moon is Illuminated
Nov 21
Waning Crescent
Nov 25
New
Dec 2
First Quarter
Dec 10
Full
Dec 17
Last Quarter

Hourly Weather History & Observations

Time (EST) Temp. Windchill Dew Point Humidity Pressure Visibility Wind Dir Wind Speed Gust Speed Precip Events Conditions
12:53 AM 55.0 °F - 48.9 °F 80% 30.09 in 10.0 mi West 4.6 mph - N/A   Clear
1:53 AM 54.0 °F - 48.0 °F 80% 30.11 in 10.0 mi NW 4.6 mph - N/A   Clear
2:53 AM 54.0 °F - 46.9 °F 77% 30.12 in 10.0 mi NW 5.8 mph - N/A   Overcast
3:53 AM 52.0 °F - 46.9 °F 83% 30.14 in 8.0 mi NNW 8.1 mph - 0.00 in Rain Light Rain
4:53 AM 50.0 °F - 48.0 °F 93% 30.14 in 10.0 mi NW 3.5 mph - 0.00 in   Overcast
5:53 AM 50.0 °F - 48.9 °F 96% 30.17 in 9.0 mi Calm Calm - 0.00 in   Overcast
6:53 AM 50.0 °F - 46.0 °F 86% 30.21 in 10.0 mi NE 5.8 mph - 0.00 in   Overcast
7:53 AM 48.9 °F - 42.1 °F 77% 30.24 in 10.0 mi NNE 11.5 mph - N/A   Overcast
8:53 AM 48.9 °F - 41.0 °F 74% 30.26 in 10.0 mi NNE 10.4 mph - N/A   Overcast
9:53 AM 48.9 °F - 39.0 °F 69% 30.28 in 10.0 mi NNE 10.4 mph - N/A   Mostly Cloudy
10:53 AM 48.9 °F - 37.0 °F 64% 30.29 in 10.0 mi North 15.0 mph - N/A   Mostly Cloudy
11:53 AM 48.0 °F - 36.0 °F 63% 30.27 in 10.0 mi North 13.8 mph - N/A   Partly Cloudy
12:53 PM 46.9 °F - 37.0 °F 68% 30.27 in 10.0 mi ENE 8.1 mph - N/A   Partly Cloudy
1:53 PM 48.9 °F - 35.1 °F 59% 30.27 in 10.0 mi NNE 10.4 mph - N/A   Mostly Cloudy
2:53 PM 46.9 °F - 36.0 °F 66% 30.27 in 10.0 mi NE 8.1 mph - N/A   Clear
3:53 PM 44.1 °F 40.1 °F 35.1 °F 71% 30.28 in 10.0 mi ENE 6.9 mph - N/A   Clear
4:53 PM 42.1 °F 37.7 °F 33.1 °F 70% 30.31 in 10.0 mi ENE 6.9 mph - N/A   Clear
5:53 PM 39.9 °F 35.1 °F 33.1 °F 77% 30.33 in 10.0 mi ENE 6.9 mph - N/A   Clear
6:53 PM 39.9 °F 35.1 °F 32.0 °F 73% 30.35 in 10.0 mi ENE 6.9 mph - N/A   Clear
7:53 PM 39.9 °F 34.5 °F 30.9 °F 70% 30.34 in 10.0 mi ENE 8.1 mph - N/A   Clear
8:53 PM 39.0 °F 36.8 °F 30.9 °F 73% 30.35 in 10.0 mi ENE 3.5 mph - N/A   Mostly Cloudy
9:53 PM 37.0 °F 34.5 °F 30.9 °F 79% 30.36 in 10.0 mi NE 3.5 mph - N/A   Partly Cloudy
10:53 PM 36.0 °F - 30.9 °F 82% 30.35 in 10.0 mi Calm Calm - N/A   Clear
11:53 PM 34.0 °F - 30.9 °F 89% 30.36 in 10.0 mi Calm Calm - N/A   Clear